| time (UTC) | temp F | wind direction | speed knots | gust knots | rain 1hr in | rain 24hr in | rain mn in | humidity % | barometer mb |
| 20260506030216 | 50 | 330 | 0.9 | 1.7 | 0.00 | 0.00 | 0.00 | 57 | |
| 20260506025716 | 50 | 52 | 0.0 | 0.0 | 0.00 | 0.00 | 0.00 | 57 | |
| 20260506025216 | 50 | 331 | 0.0 | 6.1 | 0.00 | 0.00 | 0.00 | 58 | |
| 20260506024716 | 49 | 291 | 2.6 | 9.6 | 0.00 | 0.00 | 0.00 | 59 | |
| 20260506024216 | 50 | 302 | 3.5 | 7.8 | 0.00 | 0.00 | 0.00 | 59 | |
| 20260506023716 | 50 | 306 | 3.5 | 10.4 | 0.00 | 0.00 | 0.00 | 58 | |
| 20260506023216 | 51 | 313 | 6.1 | 8.7 | 0.00 | 0.00 | 0.00 | 56 | |
| 20260506022716 | 51 | 284 | 3.5 | 9.6 | 0.00 | 0.00 | 0.00 | 53 | |
| 20260506022216 | 52 | 2 | 2.6 | 10.4 | 0.00 | 0.00 | 0.00 | 51 | |
| 20260506021716 | 52 | 313 | 6.1 | 9.6 | 0.00 | 0.00 | 0.00 | 49 | |
| 20260506021216 | 53 | 254 | 7.0 | 10.4 | 0.00 | 0.00 | 0.00 | 49 | |
| 20260506020716 | 53 | 284 | 7.0 | 13.9 | 0.00 | 0.00 | 0.00 | 48 | |
| 20260506020216 | 53 | 333 | 5.2 | 10.4 | 0.00 | 0.00 | 0.00 | 46 | |
| 20260506015716 | 53 | 355 | 3.5 | 7.8 | 0.00 | 0.00 | 0.00 | 46 | |
| 20260506015216 | 54 | 87 | 0.9 | 5.2 | 0.00 | 0.00 | 0.00 | 46 | |
| 20260506014716 | 54 | 223 | 2.6 | 9.6 | 0.00 | 0.00 | 0.00 | 46 | |
| 20260506014216 | 54 | 306 | 1.7 | 5.2 | 0.00 | 0.00 | 0.00 | 45 | |
| 20260506013716 | 54 | 268 | 3.5 | 7.0 | 0.00 | 0.00 | 0.00 | 45 | |
| 20260506013216 | 54 | 239 | 6.1 | 6.1 | 0.00 | 0.00 | 0.00 | 44 | |
| 20260506012716 | 54 | 92 | 0.0 | 5.2 | 0.00 | 0.00 | 0.00 | 44 | |
| 20260506012216 | 54 | 106 | 0.9 | 7.8 | 0.00 | 0.00 | 0.00 | 44 | |
| 20260506011716 | 54 | 320 | 0.0 | 6.1 | 0.00 | 0.00 | 0.00 | 45 | |
| 20260506011216 | 55 | 210 | 0.0 | 8.7 | 0.00 | 0.00 | 0.00 | 45 | |
| 20260506010716 | 54 | 343 | 3.5 | 8.7 | 0.00 | 0.00 | 0.00 | 46 | |
| 20260506010216 | 54 | 338 | 2.6 | 6.1 | 0.00 | 0.00 | 0.00 | 47 | |
| 20260506005716 | 54 | 278 | 0.9 | 8.7 | 0.00 | 0.00 | 0.00 | 47 | |
| 20260506005216 | 55 | 300 | 0.0 | 6.1 | 0.00 | 0.00 | 0.00 | 47 | |
| 20260506004716 | 55 | 293 | 0.9 | 7.8 | 0.00 | 0.00 | 0.00 | 47 | |
| 20260506004216 | 55 | 12 | 0.9 | 10.4 | 0.00 | 0.00 | 0.00 | 47 | |
| 20260506003716 | 55 | 330 | 4.3 | 9.6 | 0.00 | 0.00 | 0.00 | 47 | |
| 20260506003216 | 55 | 358 | 6.1 | 9.6 | 0.00 | 0.00 | 0.00 | 46 | |
| 20260506002716 | 56 | 285 | 1.7 | 9.6 | 0.00 | 0.00 | 0.00 | 48 | |
| 20260506002216 | 55 | 327 | 3.5 | 7.0 | 0.00 | 0.00 | 0.00 | 48 | |
| 20260506001716 | 56 | 244 | 2.6 | 9.6 | 0.00 | 0.00 | 0.00 | 49 | |
| 20260506001216 | 56 | 350 | 3.5 | 7.0 | 0.00 | 0.00 | 0.00 | 50 | |
| 20260506000716 | 56 | 244 | 5.2 | 7.8 | 0.00 | 0.00 | 0.00 | 49 | |
| 20260506000216 | 55 | 324 | 4.3 | 8.7 | 0.00 | 0.00 | 0.00 | 50 | |
| 20260505235716 | 55 | 337 | 4.3 | 6.1 | 0.00 | 0.00 | 0.00 | 51 | |
| 20260505235216 | 55 | 52 | 2.6 | 10.4 | 0.00 | 0.00 | 0.00 | 51 | |
| 20260505234716 | 55 | 316 | 5.2 | 14.8 | 0.00 | 0.00 | 0.00 | 50 | |
| 20260505234216 | 56 | 333 | 5.2 | 14.8 | 0.00 | 0.00 | 0.00 | 48 | |
| 20260505233716 | 57 | 47 | 0.9 | 8.7 | 0.00 | 0.00 | 0.00 | 46 | |
| 20260505233216 | 58 | 312 | 3.5 | 7.8 | 0.00 | 0.00 | 0.00 | 46 | |
| 20260505232716 | 57 | 344 | 4.3 | 7.0 | 0.00 | 0.00 | 0.00 | 47 | |
| 20260505232216 | 56 | 286 | 4.3 | 14.8 | 0.00 | 0.00 | 0.00 | 47 | |
| 20260505231716 | 56 | 307 | 6.1 | 8.7 | 0.00 | 0.00 | 0.00 | 47 | |
| 20260505231216 | 57 | 95 | 0.9 | 7.8 | 0.00 | 0.00 | 0.00 | 48 | |
| 20260505230716 | 56 | 293 | 5.2 | 13.0 | 0.00 | 0.00 | 0.00 | 47 | |
| 20260505230216 | 57 | 312 | 3.5 | 8.7 | 0.00 | 0.00 | 0.00 | 48 | |
| 20260505225716 | 56 | 323 | 5.2 | 11.3 | 0.00 | 0.00 | 0.00 | 48 | |
| 20260505225216 | 57 | 310 | 1.7 | 7.8 | 0.00 | 0.00 | 0.00 | 48 | |
| 20260505224716 | 57 | 298 | 3.5 | 9.6 | 0.00 | 0.00 | 0.00 | 47 | |
| 20260505224216 | 58 | 309 | 7.8 | 12.2 | 0.00 | 0.00 | 0.00 | 43 | |
| 20260505223716 | 59 | 254 | 4.3 | 7.0 | 0.00 | 0.00 | 0.00 | 43 | |
| 20260505223216 | 58 | 299 | 4.3 | 15.6 | 0.00 | 0.00 | 0.00 | 43 | |
| 20260505222716 | 58 | 219 | 3.5 | 11.3 | 0.00 | 0.00 | 0.00 | 44 | |
| 20260505222216 | 58 | 80 | 3.5 | 8.7 | 0.00 | 0.00 | 0.00 | 44 | |
| 20260505221716 | 58 | 172 | 2.6 | 11.3 | 0.00 | 0.00 | 0.00 | 45 | |
| 20260505221216 | 58 | 331 | 7.0 | 11.3 | 0.00 | 0.00 | 0.00 | 44 | |
| 20260505220716 | 59 | 326 | 1.7 | 12.2 | 0.00 | 0.00 | 0.00 | 43 | |
| 20260505220216 | 60 | 160 | 4.3 | 13.0 | 0.00 | 0.00 | 0.00 | 41 | |
| 20260505215716 | 60 | 306 | 8.7 | 9.6 | 0.00 | 0.00 | 0.00 | 42 | |
| 20260505215216 | 60 | 267 | 6.1 | 18.2 | 0.00 | 0.00 | 0.00 | 42 | |
| 20260505214716 | 60 | 338 | 7.8 | 14.8 | 0.00 | 0.00 | 0.00 | 41 | |
| 20260505214216 | 60 | 323 | 5.2 | 14.8 | 0.00 | 0.00 | 0.00 | 41 | |
| 20260505213716 | 60 | 327 | 4.3 | 20.0 | 0.00 | 0.00 | 0.00 | 42 | |
| 20260505213216 | 59 | 298 | 4.3 | 13.0 | 0.00 | 0.00 | 0.00 | 43 | |
| 20260505212716 | 59 | 2 | 11.3 | 11.3 | 0.00 | 0.00 | 0.00 | 41 | |
| 20260505212216 | 61 | 184 | 1.7 | 7.8 | 0.00 | 0.00 | 0.00 | 41 | |
| 20260505211716 | 61 | 226 | 2.6 | 8.7 | 0.00 | 0.00 | 0.00 | 41 | |
| 20260505211216 | 62 | 222 | 0.0 | 10.4 | 0.00 | 0.00 | 0.00 | 41 | |
| 20260505210716 | 60 | 135 | 1.7 | 13.0 | 0.00 | 0.00 | 0.00 | 43 | |
| 20260505210216 | 61 | 274 | 5.2 | 11.3 | 0.00 | 0.00 | 0.00 | 41 | |
| 20260505205716 | 61 | 351 | 1.7 | 8.7 | 0.00 | 0.00 | 0.00 | 40 | |
| 20260505205216 | 61 | 299 | 3.5 | 13.0 | 0.00 | 0.00 | 0.00 | 43 | |
| 20260505204716 | 60 | 293 | 1.7 | 9.6 | 0.00 | 0.00 | 0.00 | 43 | |
| 20260505204216 | 59 | 329 | 3.5 | 9.6 | 0.00 | 0.00 | 0.00 | 47 | |
| 20260505203716 | 58 | 185 | 1.7 | 7.0 | 0.00 | 0.00 | 0.00 | 49 | |
| 20260505203216 | 57 | 338 | 3.5 | 10.4 | 0.00 | 0.00 | 0.00 | 50 | |
| 20260505202716 | 57 | 358 | 1.7 | 11.3 | 0.00 | 0.00 | 0.00 | 49 | |
| 20260505202216 | 58 | 205 | 3.5 | 5.2 | 0.00 | 0.00 | 0.00 | 51 | |
| 20260505201716 | 58 | 274 | 0.0 | 7.8 | 0.00 | 0.00 | 0.00 | 52 | |
| 20260505201216 | 58 | 1 | 5.2 | 10.4 | 0.00 | 0.00 | 0.00 | 44 | |
| 20260505200716 | 59 | 312 | 5.2 | 11.3 | 0.00 | 0.00 | 0.00 | 42 | |
| 20260505200216 | 59 | 358 | 5.2 | 6.1 | 0.00 | 0.00 | 0.00 | 42 | |
| 20260505195716 | 59 | 358 | 3.5 | 11.3 | 0.00 | 0.00 | 0.00 | 44 | |
| 20260505195216 | 58 | 192 | 2.6 | 11.3 | 0.00 | 0.00 | 0.00 | 44 | |
| 20260505194716 | 58 | 67 | 3.5 | 10.4 | 0.00 | 0.00 | 0.00 | 44 | |
| 20260505194216 | 59 | 305 | 3.5 | 10.4 | 0.00 | 0.00 | 0.00 | 43 | |
| 20260505193716 | 59 | 213 | 0.0 | 14.8 | 0.00 | 0.00 | 0.00 | 43 | |
| 20260505193216 | 59 | 322 | 0.0 | 12.2 | 0.00 | 0.00 | 0.00 | 43 | |
| 20260505192717 | 59 | 309 | 11.3 | 11.3 | 0.00 | 0.00 | 0.00 | 43 | |
| 20260505192217 | 59 | 315 | 6.1 | 8.7 | 0.00 | 0.00 | 0.00 | 42 | |
| 20260505191716 | 59 | 286 | 3.5 | 8.7 | 0.00 | 0.00 | 0.00 | 41 | |
| 20260505191216 | 60 | 194 | 1.7 | 7.0 | 0.00 | 0.00 | 0.00 | 41 | |
| 20260505190717 | 60 | 208 | 1.7 | 7.0 | 0.00 | 0.00 | 0.00 | 40 | |
| 20260505190217 | 59 | 229 | 2.6 | 13.0 | 0.00 | 0.00 | 0.00 | 40 | |
| 20260505185716 | 59 | 234 | 6.1 | 14.8 | 0.00 | 0.00 | 0.00 | 40 | |
| 20260505185217 | 59 | 358 | 4.3 | 12.2 | 0.00 | 0.00 | 0.00 | 40 | |
| 20260505184717 | 60 | 344 | 4.3 | 8.7 | 0.00 | 0.00 | 0.00 | 38 | |
| 20260505184217 | 60 | 337 | 3.5 | 10.4 | 0.00 | 0.00 | 0.00 | 38 | |
| 20260505183717 | 61 | 296 | 2.6 | 8.7 | 0.00 | 0.00 | 0.00 | 36 | |
| 20260505183217 | 60 | 289 | 2.6 | 8.7 | 0.00 | 0.00 | 0.00 | 39 | |
| 20260505182717 | 59 | 302 | 7.0 | 15.6 | 0.00 | 0.00 | 0.00 | 40 | |
| 20260505182217 | 59 | 260 | 7.8 | 14.8 | 0.00 | 0.00 | 0.00 | 39 | |
| 20260505181717 | 61 | 324 | 7.8 | 15.6 | 0.00 | 0.00 | 0.00 | 36 | |
| 20260505181217 | 63 | 337 | 6.1 | 12.2 | 0.00 | 0.00 | 0.00 | 35 | |
| 20260505180717 | 62 | 327 | 4.3 | 9.6 | 0.00 | 0.00 | 0.00 | 37 | |
| 20260505180217 | 61 | 237 | 1.7 | 9.6 | 0.00 | 0.00 | 0.00 | 37 | |
| 20260505175717 | 61 | 115 | 2.6 | 7.8 | 0.00 | 0.00 | 0.00 | 36 | |
| 20260505175217 | 61 | 144 | 4.3 | 11.3 | 0.00 | 0.00 | 0.00 | 37 | |
| 20260505174717 | 61 | 78 | 1.7 | 4.3 | 0.00 | 0.00 | 0.00 | 37 | |
| 20260505174217 | 60 | 22 | 0.0 | 4.3 | 0.00 | 0.00 | 0.00 | 37 | |
| 20260505173717 | 60 | 185 | 2.6 | 7.0 | 0.00 | 0.00 | 0.00 | 38 | |
| 20260505173217 | 60 | 320 | 6.1 | 11.3 | 0.00 | 0.00 | 0.00 | 37 | |
| 20260505172717 | 61 | 303 | 2.6 | 7.8 | 0.00 | 0.00 | 0.00 | 38 | |
| 20260505172217 | 61 | 261 | 1.7 | 9.6 | 0.00 | 0.00 | 0.00 | 37 | |
| 20260505171717 | 60 | 144 | 7.0 | 7.8 | 0.00 | 0.00 | 0.00 | 38 | |
| 20260505171217 | 60 | 265 | 1.7 | 7.8 | 0.00 | 0.00 | 0.00 | 37 | |
| 20260505170717 | 59 | 310 | 7.8 | 9.6 | 0.00 | 0.00 | 0.00 | 38 | |
| 20260505170217 | 58 | 317 | 6.1 | 12.2 | 0.00 | 0.00 | 0.00 | 38 | |
| 20260505165717 | 59 | 340 | 8.7 | 9.6 | 0.00 | 0.00 | 0.00 | 38 | |
| 20260505165217 | 57 | 293 | 4.3 | 8.7 | 0.00 | 0.00 | 0.00 | 40 | |
| 20260505164717 | 56 | 310 | 7.0 | 7.0 | 0.00 | 0.00 | 0.00 | 41 | |
| 20260505164217 | 57 | 108 | 2.6 | 5.2 | 0.00 | 0.00 | 0.00 | 40 | |
| 20260505163717 | 57 | 215 | 1.7 | 4.3 | 0.00 | 0.00 | 0.00 | 40 | |
| 20260505163217 | 57 | 303 | 2.6 | 7.0 | 0.00 | 0.00 | 0.00 | 39 | |
| 20260505162717 | 57 | 137 | 2.6 | 4.3 | 0.00 | 0.00 | 0.00 | 39 | |
| 20260505162217 | 57 | 234 | 2.6 | 4.3 | 0.00 | 0.00 | 0.00 | 40 | |
| 20260505161717 | 56 | 338 | 2.6 | 9.6 | 0.00 | 0.00 | 0.00 | 39 | |
| 20260505161217 | 57 | 284 | 2.6 | 7.0 | 0.00 | 0.00 | 0.00 | 39 | |
| 20260505160717 | 57 | 160 | 1.7 | 9.6 | 0.00 | 0.00 | 0.00 | 39 | |
| 20260505160217 | 57 | 319 | 3.5 | 7.8 | 0.00 | 0.00 | 0.00 | 39 | |
| 20260505153217 | 57 | 316 | 7.0 | 7.8 | 0.00 | 0.00 | 0.00 | 36 | |
| 20260505152717 | 57 | 36 | 2.6 | 6.1 | 0.00 | 0.00 | 0.00 | 38 | |
| 20260505152217 | 56 | 254 | 4.3 | 7.0 | 0.00 | 0.00 | 0.00 | 39 | |
| 20260505151717 | 56 | 333 | 1.7 | 7.8 | 0.00 | 0.00 | 0.00 | 38 | |
| 20260505151217 | 56 | 219 | 3.5 | 7.0 | 0.00 | 0.00 | 0.00 | 37 | |
| 20260505150717 | 56 | 357 | 6.1 | 7.8 | 0.00 | 0.00 | 0.00 | 37 | |
| 20260505150217 | 55 | 324 | 4.3 | 8.7 | 0.00 | 0.00 | 0.00 | 36 | |
| 20260505140217 | 54 | 74 | 0.9 | 1.7 | 0.00 | 0.00 | 0.00 | 37 | |
| 20260505130217 | 43 | 265 | 1.7 | 4.3 | 0.00 | 0.00 | 0.00 | 60 | |
| 20260505124717 | 43 | 247 | 0.0 | 2.6 | 0.00 | 0.00 | 0.00 | 57 | |
| 20260505124217 | 43 | 299 | 1.7 | 2.6 | 0.00 | 0.00 | 0.00 | 60 | |
| 20260505123717 | 44 | 165 | 0.9 | 2.6 | 0.00 | 0.00 | 0.00 | 57 | |
| 20260505123217 | 44 | 354 | 1.7 | 2.6 | 0.00 | 0.00 | 0.00 | 58 | |
| 20260505122717 | 45 | 247 | 0.0 | 1.7 | 0.00 | 0.00 | 0.00 | 54 | |
| 20260505122217 | 45 | 291 | 0.9 | 4.3 | 0.00 | 0.00 | 0.00 | 55 | |
| 20260505121717 | 45 | 309 | 0.9 | 0.9 | 0.00 | 0.00 | 0.00 | 57 | |
| 20260505121217 | 45 | 296 | 0.9 | 4.3 | 0.00 | 0.00 | 0.00 | 54 | |
| 20260505120717 | 46 | 260 | 0.0 | 0.0 | 0.00 | 0.00 | 0.00 | 54 | |
| 20260505120217 | 46 | 260 | 0.0 | 0.0 | 0.00 | 0.00 | 0.00 | 54 | |
| 20260505115717 | 46 | 260 | 0.0 | 3.5 | 0.00 | 0.00 | 0.00 | 55 | |
| 20260505115217 | 46 | 236 | 1.7 | 5.2 | 0.00 | 0.00 | 0.00 | 47 | |
| 20260505114717 | 45 | 306 | 2.6 | 2.6 | 0.00 | 0.00 | 0.00 | 55 | |
| 20260505114217 | 46 | 295 | 0.9 | 1.7 | 0.00 | 0.00 | 0.00 | 53 | |
| 20260505113717 | 46 | 307 | 0.0 | 1.7 | 0.00 | 0.00 | 0.00 | 52 | |
| 20260505113217 | 46 | 247 | 0.0 | 1.7 | 0.00 | 0.00 | 0.00 | 52 | |
| 20260505112717 | 46 | 293 | 0.9 | 3.5 | 0.00 | 0.00 | 0.00 | 51 | |
| 20260505112217 | 46 | 312 | 0.0 | 0.0 | 0.00 | 0.00 | 0.00 | 51 | |
| 20260505111717 | 47 | 341 | 0.0 | 0.9 | 0.00 | 0.00 | 0.00 | 50 | |
| 20260505111217 | 47 | 307 | 0.9 | 2.6 | 0.00 | 0.00 | 0.00 | 49 | |
| 20260505110717 | 48 | 357 | 1.7 | 1.7 | 0.00 | 0.00 | 0.00 | 48 | |
| 20260505110217 | 48 | 319 | 0.9 | 4.3 | 0.00 | 0.00 | 0.00 | 47 | |
| 20260505102217 | 52 | 289 | 1.7 | 1.7 | 0.00 | 0.00 | 0.00 | 39 | |
| 20260505101717 | 53 | 123 | 0.0 | 0.9 | 0.00 | 0.00 | 0.00 | 38 | |
| 20260505101217 | 53 | 174 | 0.0 | 6.1 | 0.00 | 0.00 | 0.00 | 37 | |
| 20260505100717 | 53 | 324 | 6.1 | 10.4 | 0.00 | 0.00 | 0.00 | 37 | |
| 20260505100217 | 53 | 71 | 0.9 | 4.3 | 0.00 | 0.00 | 0.00 | 39 | |
| 20260505095717 | 54 | 347 | 2.6 | 3.5 | 0.00 | 0.00 | 0.00 | 37 | |
| 20260505095217 | 54 | 133 | 1.7 | 7.0 | 0.00 | 0.00 | 0.00 | 35 | |
| 20260505094717 | 55 | 299 | 0.9 | 6.1 | 0.00 | 0.00 | 0.00 | 35 | |
| 20260505094217 | 55 | 154 | 1.7 | 4.3 | 0.00 | 0.00 | 0.00 | 34 | |
| 20260505093717 | 56 | 70 | 2.6 | 8.7 | 0.00 | 0.00 | 0.00 | 33 | |
| 20260505093217 | 55 | 19 | 4.3 | 7.0 | 0.00 | 0.00 | 0.00 | 33 | |
| 20260505092717 | 56 | 261 | 4.3 | 7.8 | 0.00 | 0.00 | 0.00 | 33 | |
| 20260505092217 | 56 | 233 | 2.6 | 10.4 | 0.00 | 0.00 | 0.00 | 33 | |
| 20260505091717 | 56 | 40 | 3.5 | 6.1 | 0.00 | 0.00 | 0.00 | 33 | |
| 20260505091217 | 56 | 352 | 3.5 | 10.4 | 0.00 | 0.00 | 0.00 | 32 | |
| 20260505090717 | 56 | 43 | 1.7 | 6.1 | 0.00 | 0.00 | 0.00 | 32 | |
| 20260505090217 | 56 | 43 | 3.5 | 9.6 | 0.00 | 0.00 | 0.00 | 32 | |
| 20260505085717 | 56 | 28 | 6.1 | 16.5 | 0.00 | 0.00 | 0.00 | 32 | |
| 20260505085217 | 56 | 29 | 7.0 | 13.0 | 0.00 | 0.00 | 0.00 | 32 | |
| 20260505084717 | 57 | 88 | 3.5 | 17.4 | 0.00 | 0.00 | 0.00 | 32 | |
| 20260505084217 | 57 | 326 | 5.2 | 16.5 | 0.00 | 0.00 | 0.00 | 31 | |
| 20260505083717 | 57 | 327 | 5.2 | 14.8 | 0.00 | 0.00 | 0.00 | 31 | |
| 20260505083217 | 57 | 16 | 2.6 | 8.7 | 0.00 | 0.00 | 0.00 | 31 | |
| 20260505082717 | 58 | 118 | 0.0 | 10.4 | 0.00 | 0.00 | 0.00 | 31 | |
| 20260505082218 | 57 | 337 | 9.6 | 13.0 | 0.00 | 0.00 | 0.00 | 31 | |
| 20260505081718 | 57 | 292 | 7.0 | 12.2 | 0.00 | 0.00 | 0.00 | 31 | |
| 20260505081218 | 57 | 285 | 3.5 | 9.6 | 0.00 | 0.00 | 0.00 | 31 | |
| 20260505080718 | 57 | 345 | 4.3 | 8.7 | 0.00 | 0.00 | 0.00 | 32 | |
| 20260505080218 | 57 | 326 | 2.6 | 13.9 | 0.00 | 0.00 | 0.00 | 32 | |
| 20260505075718 | 57 | 300 | 5.2 | 7.0 | 0.00 | 0.00 | 0.00 | 32 | |
| 20260505075218 | 57 | 324 | 2.6 | 9.6 | 0.00 | 0.00 | 0.00 | 32 | |
| 20260505074718 | 57 | 319 | 3.5 | 13.9 | 0.00 | 0.00 | 0.00 | 32 | |
| 20260505074218 | 57 | 319 | 5.2 | 13.0 | 0.00 | 0.00 | 0.00 | 32 | |
| 20260505073718 | 57 | 250 | 5.2 | 12.2 | 0.00 | 0.00 | 0.00 | 33 | |
| 20260505073218 | 58 | 303 | 7.8 | 13.9 | 0.00 | 0.00 | 0.00 | 32 | |
| 20260505072718 | 57 | 326 | 3.5 | 16.5 | 0.00 | 0.00 | 0.00 | 33 | |
| 20260505072218 | 57 | 191 | 1.7 | 10.4 | 0.00 | 0.00 | 0.00 | 33 | |
| 20260505071718 | 58 | 12 | 2.6 | 8.7 | 0.00 | 0.00 | 0.00 | 33 | |
| 20260505071218 | 58 | 340 | 8.7 | 9.6 | 0.00 | 0.00 | 0.00 | 32 | |
| 20260505070718 | 58 | 345 | 1.7 | 15.6 | 0.00 | 0.00 | 0.00 | 33 | |
| 20260505070218 | 57 | 322 | 7.8 | 20.0 | 0.00 | 0.00 | 0.00 | 32 | |
| 20260505065718 | 58 | 322 | 9.6 | 11.3 | 0.00 | 0.00 | 0.00 | 33 | |
| 20260505065218 | 58 | 347 | 1.7 | 20.0 | 0.00 | 0.00 | 0.00 | 33 | |
| 20260505064718 | 58 | 323 | 6.1 | 7.8 | 0.00 | 0.00 | 0.00 | 33 | |
| 20260505064218 | 58 | 338 | 7.0 | 10.4 | 0.00 | 0.00 | 0.00 | 33 | |
| 20260505063718 | 58 | 57 | 0.9 | 8.7 | 0.00 | 0.00 | 0.00 | 33 | |
| 20260505063218 | 58 | 324 | 4.3 | 13.9 | 0.00 | 0.00 | 0.00 | 33 | |
| 20260505062718 | 58 | 288 | 1.7 | 11.3 | 0.00 | 0.00 | 0.00 | 33 | |
| 20260505062218 | 58 | 299 | 5.2 | 13.9 | 0.00 | 0.00 | 0.00 | 33 | |
| 20260505061718 | 58 | 343 | 2.6 | 12.2 | 0.00 | 0.00 | 0.00 | 32 | |
| 20260505061218 | 58 | 292 | 6.1 | 15.6 | 0.00 | 0.00 | 0.00 | 33 | |
| 20260505060718 | 59 | 327 | 5.2 | 12.2 | 0.00 | 0.00 | 0.00 | 32 | |
| 20260505060218 | 59 | 300 | 1.7 | 17.4 | 0.00 | 0.00 | 0.00 | 32 | |
| 20260505055718 | 59 | 326 | 7.0 | 16.5 | 0.00 | 0.00 | 0.00 | 32 | |
| 20260505055218 | 59 | 309 | 5.2 | 13.0 | 0.00 | 0.00 | 0.00 | 32 | |
| 20260505054718 | 59 | 293 | 7.0 | 12.2 | 0.00 | 0.00 | 0.00 | 32 | |
| 20260505054218 | 59 | 305 | 6.1 | 13.0 | 0.00 | 0.00 | 0.00 | 33 | |
| 20260505053718 | 59 | 296 | 6.1 | 13.9 | 0.00 | 0.00 | 0.00 | 32 | |
| 20260505053218 | 59 | 313 | 10.4 | 20.0 | 0.00 | 0.00 | 0.00 | 32 | |
| 20260505052718 | 59 | 317 | 3.5 | 13.9 | 0.00 | 0.00 | 0.00 | 32 | |
| 20260505052218 | 59 | 302 | 5.2 | 13.0 | 0.00 | 0.00 | 0.00 | 32 | |
| 20260505051718 | 59 | 322 | 0.9 | 14.8 | 0.00 | 0.00 | 0.00 | 32 | |
| 20260505051218 | 59 | 322 | 7.8 | 19.1 | 0.00 | 0.00 | 0.00 | 32 | |
| 20260505050718 | 59 | 18 | 4.3 | 21.7 | 0.00 | 0.00 | 0.00 | 32 | |
| 20260505050218 | 59 | 292 | 2.6 | 13.0 | 0.00 | 0.00 | 0.00 | 32 | |
| 20260505041718 | 60 | 343 | 3.5 | 14.8 | 0.00 | 0.00 | 0.00 | 28 | |
| 20260505041218 | 60 | 4 | 11.3 | 20.0 | 0.00 | 0.00 | 0.00 | 28 | |
| 20260505040718 | 60 | 307 | 7.0 | 17.4 | 0.00 | 0.00 | 0.00 | 27 | |
| 20260505040218 | 60 | 326 | 7.0 | 15.6 | 0.00 | 0.00 | 0.00 | 26 | |
| 20260505035718 | 60 | 320 | 4.3 | 24.3 | 0.00 | 0.00 | 0.00 | 26 | |
| 20260505035218 | 60 | 320 | 10.4 | 17.4 | 0.00 | 0.00 | 0.00 | 26 | |
| 20260505034718 | 60 | 270 | 7.0 | 13.0 | 0.00 | 0.00 | 0.00 | 25 | |
| 20260505034218 | 60 | 243 | 1.7 | 19.1 | 0.00 | 0.00 | 0.00 | 25 | |
| 20260505033718 | 60 | 279 | 4.3 | 17.4 | 0.00 | 0.00 | 0.00 | 25 | |
| 20260505033218 | 60 | 296 | 9.6 | 20.9 | 0.00 | 0.00 | 0.00 | 24 | |
| 20260505032718 | 60 | 337 | 5.2 | 17.4 | 0.00 | 0.00 | 0.00 | 24 | |
| 20260505032218 | 60 | 352 | 4.3 | 11.3 | 0.00 | 0.00 | 0.00 | 24 | |
| 20260505031718 | 61 | 312 | 10.4 | 11.3 | 0.00 | 0.00 | 0.00 | 23 | |
| 20260505031218 | 61 | 306 | 6.1 | 15.6 | 0.00 | 0.00 | 0.00 | 23 | |
| 20260505030718 | 61 | 277 | 4.3 | 16.5 | 0.00 | 0.00 | 0.00 | 22 |